GFSFLT1_prec_precacc_069.txt.gz
Total_Precipitation_Accumulation
0.00 0.00 0.02 0.03 0.05 0.20 0.55 0.83 1.40 2.38 1.73 0.74 0.23 0.09 0.05 0.09 0.15 0.14 0.14 0.10 0.04 0.00 0.00 0.00 0.00 0.00 0.00 0.00 0.00 0.00 0.00 0.00
0.00 0.01 0.03 0.03 0.15 0.47 0.72 0.75 0.82 0.55 0.22 0.09 0.05 0.04 0.05 0.07 0.14 0.09 0.08 0.05 0.03 0.00 0.00 0.00 0.00 0.00 0.00 0.00 0.00 0.00 0.00 0.00
0.00 0.05 0.10 0.17 0.31 0.35 0.22 0.07 0.02 0.01 0.02 0.00 0.00 0.01 0.00 0.06 0.11 0.12 0.09 0.06 0.02 0.00 0.00 0.00 0.00 0.00 0.00 0.00 0.00 0.00 0.00 0.00
0.04 0.05 0.07 0.06 0.03 0.09 0.04 0.03 0.02 0.01 0.01 0.00 0.00 0.00 0.01 0.06 0.16 0.10 0.06 0.03 0.02 0.00 0.00 0.00 0.00 0.00 0.00 0.00 0.00 0.00 0.00 0.00
0.01 0.00 0.01 0.01 0.06 0.02 0.06 0.10 0.04 0.04 0.02 0.02 0.02 0.02 0.03 0.09 0.08 0.03 0.01 0.00 0.00 0.00 0.00 0.00 0.00 0.00 0.00 0.00 0.00 0.00 0.00 0.00
0.00 0.00 0.01 0.03 0.04 0.05 0.09 0.08 0.10 0.11 0.07 0.07 0.07 0.07 0.12 0.11 0.05 0.03 0.02 0.02 0.03 0.03 0.01 0.00 0.00 0.00 0.00 0.00 0.00 0.00 0.00 0.00
0.00 0.01 0.00 0.01 0.03 0.03 0.06 0.11 0.16 0.19 0.17 0.13 0.14 0.16 0.15 0.10 0.08 0.06 0.05 0.04 0.04 0.03 0.01 0.00 0.00 0.00 0.01 0.00 0.00 0.00 0.01 0.02
0.00 0.00 0.00 0.03 0.04 0.07 0.15 0.16 0.18 0.20 0.18 0.19 0.17 0.13 0.10 0.07 0.04 0.03 0.05 0.06 0.06 0.05 0.03 0.03 0.04 0.03 0.01 0.00 0.02 0.04 0.09 0.16
0.00 0.00 0.02 0.05 0.05 0.12 0.28 0.30 0.24 0.23 0.22 0.24 0.20 0.13 0.07 0.09 0.04 0.05 0.04 0.04 0.05 0.05 0.09 0.09 0.06 0.04 0.04 0.09 0.23 0.36 0.43 0.48
0.00 0.00 0.02 0.03 0.04 0.08 0.20 0.21 0.11 0.15 0.17 0.16 0.16 0.13 0.10 0.09 0.08 0.06 0.05 0.08 0.11 0.11 0.08 0.10 0.14 0.19 0.26 0.33 0.37 0.35 0.31 0.25
0.00 0.00 0.01 0.01 0.01 0.03 0.07 0.05 0.04 0.01 0.01 0.07 0.12 0.13 0.13 0.14 0.15 0.11 0.11 0.12 0.13 0.15 0.27 0.41 0.36 0.26 0.17 0.17 0.16 0.12 0.07 0.08
0.00 0.00 0.00 0.00 0.00 0.01 0.01 0.02 0.02 0.02 0.05 0.10 0.10 0.10 0.14 0.21 0.24 0.20 0.19 0.21 0.25 0.33 0.40 0.25 0.19 0.21 0.20 0.15 0.09 0.06 0.06 0.04
0.00 0.00 0.00 0.00 0.00 0.00 0.00 0.01 0.03 0.05 0.07 0.09 0.13 0.14 0.16 0.20 0.19 0.15 0.17 0.24 0.24 0.27 0.39 0.47 0.43 0.31 0.24 0.19 0.16 0.10 0.06 0.04
0.00 0.00 0.00 0.00 0.00 0.03 0.04 0.05 0.09 0.12 0.18 0.18 0.21 0.21 0.18 0.17 0.13 0.12 0.16 0.37 0.51 0.59 0.56 0.44 0.41 0.34 0.21 0.09 0.04 0.02 0.01 0.00
0.00 0.00 0.00 0.01 0.05 0.08 0.08 0.10 0.14 0.16 0.20 0.19 0.18 0.19 0.17 0.17 0.22 0.35 0.48 0.44 0.35 0.32 0.33 0.31 0.18 0.05 0.02 0.02 0.01 0.00 0.00 0.00
0.01 0.02 0.04 0.03 0.09 0.12 0.11 0.10 0.11 0.16 0.18 0.17 0.15 0.13 0.17 0.21 0.16 0.12 0.13 0.20 0.18 0.14 0.07 0.04 0.02 0.01 0.00 0.00 0.00 0.00 0.00 0.00
0.00 0.02 0.03 0.04 0.06 0.09 0.12 0.13 0.12 0.13 0.13 0.14 0.11 0.13 0.14 0.17 0.20 0.16 0.11 0.10 0.10 0.06 0.03 0.01 0.00 0.00 0.00 0.00 0.00 0.00 0.00 0.00
0.00 0.00 0.00 0.01 0.01 0.06 0.07 0.07 0.08 0.08 0.08 0.07 0.09 0.11 0.13 0.10 0.06 0.08 0.08 0.09 0.10 0.05 0.02 0.01 0.01 0.00 0.00 0.00 0.00 0.00 0.00 0.00
0.01 0.00 0.00 0.00 0.00 0.00 0.00 0.00 0.01 0.02 0.02 0.02 0.02 0.02 0.03 0.05 0.06 0.10 0.12 0.08 0.04 0.05 0.02 0.00 0.00 0.00 0.00 0.00 0.00 0.00 0.00 0.00

GFSFLT1_prec_precacc_072.txt.gz
Total_Precipitation_Accumulation
0.00 0.00 0.02 0.03 0.05 0.20 0.55 0.83 1.42 2.42 1.78 0.78 0.24 0.10 0.05 0.09 0.15 0.14 0.16 0.12 0.04 0.00 0.00 0.00 0.00 0.00 0.00 0.00 0.00 0.00 0.00 0.00
0.00 0.01 0.03 0.03 0.15 0.47 0.72 0.75 0.84 0.60 0.28 0.10 0.05 0.04 0.05 0.07 0.14 0.10 0.11 0.08 0.03 0.01 0.00 0.00 0.00 0.00 0.00 0.00 0.00 0.00 0.00 0.00
0.00 0.05 0.10 0.17 0.31 0.35 0.22 0.08 0.04 0.03 0.03 0.00 0.00 0.01 0.00 0.06 0.12 0.13 0.12 0.08 0.03 0.00 0.00 0.00 0.00 0.00 0.00 0.00 0.00 0.00 0.00 0.00
0.04 0.05 0.07 0.06 0.03 0.09 0.04 0.03 0.02 0.01 0.01 0.00 0.00 0.00 0.01 0.06 0.17 0.11 0.07 0.04 0.02 0.00 0.00 0.00 0.00 0.00 0.00 0.00 0.00 0.00 0.00 0.00
0.01 0.00 0.01 0.01 0.06 0.02 0.06 0.10 0.04 0.04 0.02 0.02 0.02 0.02 0.03 0.09 0.08 0.03 0.01 0.00 0.00 0.00 0.00 0.00 0.00 0.00 0.00 0.00 0.00 0.00 0.00 0.00
0.00 0.00 0.01 0.03 0.04 0.05 0.09 0.08 0.10 0.11 0.07 0.07 0.07 0.07 0.12 0.11 0.05 0.03 0.02 0.02 0.04 0.03 0.02 0.02 0.01 0.01 0.00 0.00 0.00 0.00 0.00 0.00
0.00 0.01 0.00 0.01 0.03 0.03 0.06 0.11 0.16 0.19 0.17 0.13 0.14 0.16 0.15 0.10 0.14 0.14 0.05 0.05 0.06 0.06 0.04 0.02 0.01 0.01 0.01 0.01 0.01 0.00 0.01 0.02
0.00 0.00 0.01 0.03 0.04 0.07 0.15 0.16 0.18 0.20 0.18 0.19 0.17 0.13 0.10 0.08 0.09 0.07 0.07 0.09 0.07 0.07 0.05 0.05 0.06 0.05 0.04 0.03 0.04 0.05 0.09 0.16
0.00 0.00 0.02 0.05 0.05 0.12 0.28 0.30 0.24 0.23 0.22 0.24 0.20 0.13 0.08 0.12 0.05 0.07 0.06 0.05 0.05 0.05 0.09 0.10 0.07 0.07 0.07 0.14 0.27 0.37 0.43 0.49
0.00 0.00 0.02 0.03 0.04 0.08 0.20 0.21 0.11 0.15 0.17 0.16 0.16 0.13 0.11 0.13 0.09 0.07 0.10 0.08 0.11 0.11 0.08 0.12 0.17 0.28 0.38 0.44 0.46 0.43 0.37 0.30
0.00 0.00 0.01 0.01 0.01 0.03 0.07 0.05 0.04 0.01 0.01 0.07 0.12 0.13 0.14 0.14 0.19 0.26 0.18 0.14 0.15 0.16 0.29 0.49 0.55 0.50 0.39 0.32 0.21 0.18 0.15 0.16
0.00 0.00 0.00 0.00 0.00 0.02 0.01 0.02 0.02 0.02 0.05 0.10 0.10 0.10 0.17 0.25 0.29 0.27 0.21 0.26 0.30 0.34 0.42 0.35 0.32 0.33 0.30 0.24 0.26 0.27 0.24 0.16
0.00 0.00 0.00 0.00 0.00 0.00 0.00 0.01 0.03 0.05 0.07 0.10 0.18 0.19 0.25 0.29 0.28 0.22 0.24 0.30 0.26 0.27 0.40 0.48 0.47 0.39 0.39 0.41 0.34 0.21 0.12 0.06
0.00 0.00 0.00 0.00 0.00 0.03 0.05 0.05 0.09 0.12 0.25 0.24 0.32 0.41 0.25 0.23 0.20 0.15 0.19 0.39 0.52 0.60 0.56 0.45 0.45 0.41 0.25 0.11 0.05 0.03 0.02 0.00
0.00 0.00 0.00 0.01 0.05 0.08 0.08 0.10 0.14 0.18 0.26 0.26 0.29 0.27 0.24 0.22 0.27 0.40 0.51 0.45 0.35 0.32 0.33 0.31 0.18 0.05 0.02 0.02 0.01 0.00 0.00 0.00
0.01 0.02 0.04 0.03 0.09 0.12 0.11 0.10 0.11 0.16 0.19 0.23 0.21 0.23 0.28 0.29 0.25 0.16 0.15 0.20 0.19 0.14 0.07 0.04 0.02 0.01 0.00 0.00 0.00 0.00 0.00 0.00
0.00 0.02 0.03 0.04 0.07 0.10 0.13 0.13 0.13 0.15 0.16 0.21 0.18 0.21 0.22 0.22 0.22 0.17 0.11 0.10 0.10 0.06 0.03 0.01 0.00 0.00 0.00 0.00 0.00 0.00 0.00 0.00
0.00 0.00 0.00 0.03 0.02 0.06 0.07 0.07 0.09 0.09 0.09 0.10 0.13 0.15 0.16 0.12 0.07 0.08 0.08 0.09 0.10 0.05 0.02 0.01 0.01 0.00 0.00 0.00 0.00 0.00 0.00 0.00
0.01 0.00 0.01 0.00 0.00 0.00 0.00 0.01 0.02 0.04 0.04 0.04 0.04 0.03 0.04 0.05 0.06 0.10 0.12 0.08 0.04 0.05 0.02 0.00 0.00 0.00 0.00 0.00 0.00 0.00 0.00 0.00

GFSFLT1_prec_precacc_078.txt.gz
Total_Precipitation_Accumulation
0.00 0.00 0.02 0.03 0.05 0.20 0.55 0.83 1.42 2.43 1.79 0.79 0.24 0.10 0.05 0.09 0.15 0.14 0.16 0.12 0.07 0.03 0.01 0.00 0.00 0.00 0.00 0.00 0.00 0.00 0.00 0.00
0.00 0.01 0.03 0.03 0.15 0.47 0.72 0.75 0.84 0.60 0.28 0.10 0.05 0.04 0.05 0.07 0.14 0.11 0.12 0.09 0.05 0.05 0.01 0.00 0.00 0.00 0.00 0.00 0.00 0.00 0.00 0.00
0.00 0.05 0.10 0.17 0.31 0.35 0.22 0.08 0.04 0.03 0.03 0.00 0.00 0.01 0.00 0.06 0.12 0.13 0.12 0.08 0.04 0.05 0.01 0.00 0.00 0.00 0.00 0.00 0.00 0.00 0.00 0.00
0.04 0.05 0.07 0.06 0.03 0.09 0.04 0.03 0.02 0.01 0.01 0.00 0.00 0.00 0.01 0.06 0.17 0.12 0.08 0.06 0.06 0.04 0.05 0.01 0.01 0.01 0.00 0.00 0.00 0.00 0.00 0.00
0.01 0.00 0.01 0.01 0.06 0.02 0.06 0.10 0.04 0.04 0.02 0.02 0.02 0.02 0.03 0.09 0.08 0.03 0.02 0.01 0.00 0.00 0.02 0.01 0.00 0.01 0.00 0.00 0.00 0.00 0.00 0.00
0.00 0.00 0.01 0.03 0.04 0.05 0.09 0.08 0.10 0.11 0.07 0.07 0.07 0.07 0.12 0.11 0.05 0.03 0.02 0.02 0.04 0.04 0.04 0.03 0.02 0.03 0.04 0.02 0.02 0.04 0.06 0.05
0.00 0.01 0.00 0.01 0.03 0.03 0.06 0.11 0.16 0.19 0.17 0.14 0.17 0.22 0.15 0.10 0.14 0.14 0.05 0.08 0.08 0.08 0.07 0.06 0.04 0.04 0.10 0.10 0.11 0.10 0.06 0.05
0.00 0.00 0.01 0.03 0.04 0.07 0.15 0.16 0.18 0.20 0.18 0.27 0.20 0.18 0.13 0.08 0.09 0.07 0.07 0.16 0.18 0.10 0.09 0.09 0.07 0.09 0.07 0.05 0.07 0.11 0.16 0.30
0.00 0.01 0.03 0.06 0.05 0.12 0.28 0.30 0.24 0.23 0.22 0.26 0.26 0.13 0.10 0.13 0.06 0.11 0.09 0.09 0.13 0.29 0.17 0.14 0.14 0.09 0.09 0.16 0.33 0.50 0.65 0.83
0.00 0.01 0.04 0.05 0.06 0.09 0.20 0.21 0.11 0.15 0.17 0.16 0.18 0.18 0.12 0.15 0.14 0.10 0.24 0.24 0.19 0.23 0.24 0.22 0.26 0.30 0.39 0.49 0.62 0.70 0.68 0.58
0.00 0.00 0.02 0.03 0.03 0.07 0.14 0.08 0.06 0.02 0.01 0.07 0.12 0.17 0.21 0.20 0.28 0.38 0.50 0.29 0.26 0.35 0.55 0.70 0.69 0.59 0.43 0.36 0.31 0.26 0.21 0.23
0.00 0.00 0.00 0.02 0.03 0.06 0.06 0.11 0.10 0.09 0.12 0.14 0.11 0.11 0.25 0.45 0.49 0.79 0.60 0.57 0.74 0.91 0.85 0.60 0.50 0.42 0.31 0.25 0.27 0.32 0.31 0.24
0.00 0.00 0.01 0.03 0.06 0.08 0.04 0.15 0.33 0.14 0.18 0.24 0.22 0.34 0.60 0.93 0.93 1.04 1.27 1.52 1.22 0.87 0.71 0.67 0.56 0.42 0.39 0.41 0.35 0.21 0.12 0.06
0.00 0.00 0.00 0.00 0.01 0.11 0.11 0.12 0.27 0.30 0.49 0.43 0.63 0.79 0.71 0.87 0.75 0.65 0.66 0.73 0.75 0.74 0.65 0.51 0.47 0.41 0.25 0.11 0.05 0.03 0.02 0.01
0.00 0.00 0.00 0.01 0.05 0.08 0.09 0.13 0.21 0.31 0.40 0.39 0.38 0.45 0.59 0.52 0.61 0.75 0.82 0.66 0.45 0.38 0.36 0.32 0.18 0.06 0.02 0.02 0.01 0.00 0.00 0.00
0.01 0.02 0.04 0.03 0.09 0.12 0.11 0.11 0.14 0.22 0.29 0.33 0.29 0.33 0.43 0.42 0.32 0.26 0.23 0.26 0.23 0.17 0.11 0.06 0.02 0.01 0.00 0.00 0.00 0.00 0.00 0.00
0.00 0.02 0.03 0.04 0.07 0.10 0.13 0.14 0.14 0.19 0.21 0.28 0.24 0.27 0.29 0.29 0.29 0.22 0.16 0.14 0.12 0.08 0.04 0.01 0.00 0.00 0.01 0.00 0.00 0.00 0.00 0.00
0.00 0.00 0.00 0.03 0.03 0.06 0.07 0.08 0.10 0.11 0.11 0.13 0.16 0.19 0.21 0.17 0.11 0.11 0.10 0.11 0.11 0.05 0.02 0.01 0.01 0.00 0.01 0.00 0.00 0.00 0.00 0.00
0.01 0.00 0.01 0.00 0.00 0.00 0.00 0.01 0.02 0.04 0.05 0.05 0.05 0.04 0.04 0.05 0.07 0.11 0.12 0.08 0.05 0.05 0.02 0.00 0.00 0.00 0.00 0.00 0.00 0.00 0.00 0.00

GFSFLT1_prec_precacc_084.txt.gz
Total_Precipitation_Accumulation
0.00 0.01 0.03 0.04 0.06 0.24 0.59 1.05 1.55 2.62 1.84 0.83 0.27 0.12 0.06 0.09 0.15 0.15 0.17 0.13 0.07 0.03 0.01 0.00 0.00 0.00 0.00 0.00 0.00 0.00 0.00 0.00
0.00 0.01 0.03 0.03 0.15 0.48 0.73 0.80 0.90 0.79 0.34 0.21 0.09 0.06 0.06 0.08 0.15 0.11 0.13 0.09 0.05 0.05 0.01 0.00 0.00 0.00 0.00 0.00 0.00 0.00 0.00 0.00
0.01 0.05 0.10 0.18 0.32 0.36 0.22 0.08 0.04 0.07 0.07 0.08 0.05 0.01 0.01 0.06 0.13 0.15 0.13 0.08 0.04 0.05 0.01 0.01 0.00 0.00 0.00 0.00 0.00 0.00 0.00 0.00
0.04 0.05 0.07 0.06 0.04 0.09 0.04 0.03 0.02 0.01 0.02 0.01 0.02 0.00 0.01 0.07 0.18 0.13 0.10 0.07 0.07 0.06 0.05 0.01 0.02 0.01 0.00 0.00 0.00 0.00 0.00 0.00
0.01 0.00 0.01 0.01 0.06 0.02 0.06 0.10 0.04 0.04 0.02 0.02 0.02 0.02 0.03 0.09 0.08 0.04 0.02 0.01 0.01 0.01 0.02 0.01 0.00 0.01 0.00 0.01 0.02 0.02 0.02 0.01
0.00 0.00 0.01 0.03 0.04 0.05 0.09 0.08 0.10 0.11 0.07 0.07 0.07 0.07 0.12 0.11 0.05 0.03 0.02 0.02 0.04 0.04 0.04 0.03 0.02 0.03 0.04 0.06 0.04 0.07 0.08 0.07
0.00 0.01 0.00 0.01 0.03 0.03 0.06 0.11 0.16 0.19 0.17 0.14 0.17 0.22 0.15 0.10 0.14 0.14 0.05 0.08 0.08 0.08 0.07 0.06 0.04 0.04 0.11 0.15 0.17 0.14 0.09 0.08
0.00 0.00 0.01 0.03 0.04 0.07 0.15 0.16 0.18 0.20 0.18 0.27 0.20 0.18 0.13 0.08 0.09 0.07 0.07 0.16 0.18 0.10 0.09 0.09 0.07 0.09 0.11 0.13 0.14 0.15 0.20 0.33
0.00 0.01 0.03 0.06 0.05 0.12 0.28 0.30 0.24 0.23 0.22 0.26 0.26 0.13 0.10 0.13 0.06 0.11 0.09 0.09 0.13 0.29 0.17 0.15 0.18 0.16 0.23 0.31 0.46 0.60 0.75 0.93
0.00 0.01 0.04 0.05 0.06 0.10 0.20 0.21 0.11 0.15 0.17 0.16 0.18 0.18 0.12 0.15 0.14 0.10 0.25 0.25 0.20 0.23 0.25 0.28 0.38 0.45 0.56 0.68 0.80 0.88 0.88 0.78
0.00 0.00 0.02 0.04 0.05 0.11 0.16 0.10 0.06 0.02 0.01 0.07 0.12 0.17 0.21 0.20 0.28 0.40 0.54 0.41 0.36 0.41 0.62 0.83 0.87 0.86 0.75 0.75 0.80 0.82 0.68 0.55
0.00 0.00 0.00 0.02 0.06 0.11 0.16 0.19 0.14 0.14 0.15 0.16 0.12 0.12 0.25 0.46 0.51 0.84 0.70 0.67 0.88 1.18 1.40 1.29 1.12 0.94 0.83 0.82 0.75 0.69 0.56 0.36
0.00 0.00 0.01 0.03 0.06 0.08 0.06 0.23 0.44 0.28 0.25 0.30 0.29 0.42 0.67 0.98 0.96 1.10 1.36 1.64 1.54 1.53 1.37 1.18 0.99 0.69 0.55 0.52 0.44 0.30 0.18 0.11
0.00 0.00 0.00 0.00 0.01 0.11 0.11 0.12 0.31 0.37 0.56 0.48 0.73 0.91 0.78 0.97 0.88 0.81 0.92 0.97 0.99 0.99 0.94 0.82 0.71 0.50 0.31 0.14 0.09 0.11 0.12 0.09
0.00 0.00 0.00 0.01 0.05 0.08 0.09 0.13 0.21 0.31 0.41 0.39 0.39 0.47 0.65 0.58 0.69 0.85 1.05 0.99 0.76 0.63 0.58 0.52 0.34 0.17 0.10 0.05 0.04 0.05 0.05 0.03
0.01 0.02 0.04 0.03 0.09 0.12 0.11 0.11 0.14 0.22 0.29 0.33 0.29 0.34 0.45 0.47 0.40 0.35 0.34 0.38 0.34 0.37 0.26 0.18 0.11 0.07 0.06 0.05 0.04 0.05 0.05 0.04
0.00 0.02 0.03 0.04 0.07 0.10 0.13 0.14 0.14 0.19 0.21 0.28 0.24 0.29 0.31 0.33 0.35 0.29 0.25 0.24 0.19 0.15 0.12 0.08 0.06 0.05 0.12 0.08 0.05 0.03 0.04 0.03
0.00 0.00 0.00 0.03 0.03 0.06 0.07 0.08 0.10 0.11 0.11 0.14 0.17 0.21 0.23 0.19 0.13 0.14 0.14 0.16 0.15 0.10 0.07 0.06 0.07 0.07 0.16 0.08 0.07 0.04 0.03 0.03
0.01 0.00 0.01 0.00 0.00 0.00 0.00 0.01 0.02 0.04 0.06 0.07 0.07 0.05 0.05 0.06 0.08 0.13 0.14 0.10 0.06 0.08 0.08 0.07 0.07 0.11 0.12 0.05 0.04 0.01 0.01 0.01

GFSFLT1_prec_precacc_087.txt.gz
Total_Precipitation_Accumulation
0.00 0.01 0.03 0.04 0.07 0.28 0.66 1.06 1.56 2.71 1.88 0.85 0.31 0.21 0.10 0.13 0.19 0.15 0.17 0.13 0.07 0.03 0.01 0.00 0.00 0.00 0.00 0.00 0.00 0.00 0.00 0.00
0.01 0.01 0.03 0.03 0.16 0.48 0.74 0.83 0.93 0.80 0.35 0.22 0.11 0.11 0.10 0.10 0.16 0.11 0.14 0.09 0.05 0.05 0.01 0.00 0.00 0.00 0.00 0.00 0.00 0.00 0.00 0.00
0.01 0.05 0.10 0.18 0.32 0.36 0.22 0.08 0.06 0.09 0.10 0.10 0.08 0.02 0.02 0.07 0.14 0.15 0.14 0.08 0.04 0.05 0.01 0.01 0.00 0.00 0.00 0.00 0.00 0.00 0.00 0.00
0.04 0.06 0.07 0.06 0.04 0.09 0.04 0.03 0.02 0.02 0.04 0.05 0.09 0.01 0.02 0.08 0.19 0.15 0.10 0.08 0.07 0.06 0.05 0.01 0.02 0.01 0.00 0.00 0.00 0.00 0.00 0.00
0.01 0.00 0.01 0.01 0.06 0.02 0.06 0.10 0.04 0.04 0.02 0.03 0.04 0.02 0.03 0.09 0.08 0.04 0.03 0.02 0.02 0.01 0.03 0.01 0.01 0.01 0.01 0.01 0.02 0.02 0.02 0.02
0.00 0.00 0.01 0.03 0.04 0.05 0.09 0.08 0.10 0.11 0.07 0.07 0.07 0.07 0.12 0.11 0.05 0.03 0.02 0.03 0.04 0.05 0.04 0.03 0.02 0.03 0.04 0.06 0.05 0.07 0.08 0.07
0.00 0.01 0.00 0.01 0.03 0.03 0.06 0.11 0.16 0.19 0.17 0.14 0.17 0.22 0.15 0.10 0.14 0.14 0.05 0.08 0.08 0.08 0.07 0.06 0.04 0.04 0.11 0.15 0.17 0.14 0.09 0.08
0.00 0.00 0.01 0.03 0.04 0.07 0.15 0.16 0.18 0.20 0.18 0.27 0.20 0.18 0.13 0.08 0.09 0.07 0.07 0.16 0.18 0.10 0.09 0.09 0.07 0.09 0.11 0.13 0.14 0.15 0.21 0.34
0.00 0.01 0.03 0.06 0.05 0.12 0.28 0.31 0.24 0.23 0.22 0.26 0.26 0.13 0.10 0.13 0.06 0.11 0.09 0.09 0.13 0.29 0.17 0.15 0.18 0.16 0.23 0.31 0.46 0.61 0.77 0.96
0.00 0.01 0.04 0.05 0.06 0.10 0.20 0.21 0.11 0.15 0.17 0.16 0.18 0.18 0.12 0.15 0.14 0.10 0.25 0.25 0.20 0.23 0.25 0.28 0.38 0.45 0.56 0.68 0.80 0.88 0.89 0.84
0.00 0.00 0.02 0.04 0.05 0.11 0.16 0.10 0.06 0.02 0.01 0.07 0.12 0.17 0.21 0.20 0.28 0.40 0.54 0.41 0.36 0.41 0.62 0.83 0.87 0.86 0.77 0.77 0.83 0.85 0.76 0.70
0.00 0.00 0.00 0.02 0.06 0.11 0.17 0.19 0.15 0.14 0.15 0.16 0.12 0.12 0.25 0.46 0.51 0.84 0.70 0.67 0.88 1.19 1.41 1.30 1.14 1.04 1.02 1.05 0.96 0.83 0.64 0.47
0.00 0.00 0.01 0.03 0.06 0.08 0.06 0.23 0.45 0.31 0.28 0.30 0.29 0.42 0.67 0.98 0.96 1.10 1.36 1.64 1.54 1.55 1.40 1.22 1.06 0.89 0.82 0.80 0.59 0.32 0.20 0.12
0.00 0.00 0.00 0.00 0.01 0.11 0.11 0.12 0.31 0.37 0.57 0.51 0.77 0.91 0.78 0.97 0.88 0.81 0.93 0.98 0.99 1.03 0.99 0.88 0.81 0.76 0.67 0.49 0.18 0.12 0.12 0.09
0.00 0.00 0.00 0.01 0.05 0.08 0.09 0.13 0.21 0.31 0.41 0.39 0.40 0.48 0.66 0.58 0.70 0.87 1.07 1.03 0.79 0.66 0.61 0.56 0.39 0.23 0.16 0.12 0.10 0.09 0.06 0.04
0.01 0.02 0.04 0.03 0.09 0.12 0.11 0.11 0.14 0.22 0.29 0.33 0.29 0.34 0.45 0.48 0.41 0.37 0.36 0.41 0.38 0.41 0.29 0.22 0.15 0.10 0.10 0.08 0.06 0.07 0.07 0.05
0.00 0.02 0.03 0.04 0.07 0.10 0.13 0.14 0.14 0.19 0.21 0.28 0.24 0.29 0.31 0.33 0.35 0.29 0.26 0.26 0.21 0.17 0.14 0.11 0.08 0.07 0.19 0.13 0.09 0.04 0.06 0.07
0.00 0.00 0.00 0.03 0.03 0.06 0.07 0.08 0.10 0.11 0.11 0.14 0.17 0.21 0.23 0.20 0.14 0.15 0.15 0.16 0.16 0.11 0.08 0.07 0.08 0.09 0.21 0.12 0.11 0.07 0.09 0.12
0.01 0.00 0.01 0.00 0.00 0.00 0.00 0.01 0.02 0.04 0.06 0.07 0.07 0.05 0.05 0.06 0.09 0.14 0.15 0.10 0.07 0.08 0.08 0.08 0.09 0.15 0.18 0.09 0.10 0.04 0.06 0.07